contact:dominique.lefevre@mio.osupytheas.fr, maurice.libes@osupytheas.fr, didier.mallarino@osupytheas.fr
Project:EMSO http://www.emso-fr.org/EMSO-France
Depth: 2436.0 m
Title:EMSO Ligure Ouest : Data MII capteur MICROCAT
DateTime_Computer,Latitude,Longitude,Temperature,Conductivity,Pressure,DateTime_Instrument
DateTime_Computer,Latitude,Longitude,degC,S m-1,dbar,DateTime_Instrument
2021-12-28T00:02:51Z,42.805,6.029,13.2993,4.60019,2469.9,2021-12-28T02:04:20Z
2021-12-28T00:05:54Z,42.805,6.029,13.2996,4.60017,2469.9,2021-12-28T02:07:23Z
2021-12-28T00:08:57Z,42.805,6.029,13.2993,4.60017,2469.89,2021-12-28T02:10:26Z
2021-12-28T00:12:00Z,42.805,6.029,13.2994,4.60017,2469.914,2021-12-28T02:13:30Z
2021-12-28T00:15:03Z,42.805,6.029,13.2991,4.60019,2469.937,2021-12-28T02:16:33Z
2021-12-28T00:18:06Z,42.805,6.029,13.2995,4.60019,2469.9,2021-12-28T02:19:36Z
2021-12-28T00:21:09Z,42.805,6.029,13.2993,4.60024,2469.853,2021-12-28T02:22:39Z
2021-12-28T00:24:13Z,42.805,6.029,13.2996,4.60022,2469.876,2021-12-28T02:25:42Z
2021-12-28T00:27:16Z,42.805,6.029,13.2993,4.60019,2469.886,2021-12-28T02:28:45Z
2021-12-28T00:30:19Z,42.805,6.029,13.2996,4.60017,2469.863,2021-12-28T02:31:48Z
2021-12-28T00:33:22Z,42.805,6.029,13.2990,4.60017,2469.914,2021-12-28T02:34:51Z
2021-12-28T00:36:25Z,42.805,6.029,13.2992,4.60019,2469.9,2021-12-28T02:37:55Z
2021-12-28T00:39:28Z,42.805,6.029,13.2995,4.60016,2469.876,2021-12-28T02:40:58Z
2021-12-28T00:42:31Z,42.805,6.029,13.2994,4.60019,2469.876,2021-12-28T02:44:01Z
2021-12-28T00:45:34Z,42.805,6.029,13.2992,4.60023,2469.9,2021-12-28T02:47:04Z
2021-12-28T00:48:38Z,42.805,6.029,13.2994,4.60016,2469.867,2021-12-28T02:50:07Z
2021-12-28T00:51:41Z,42.805,6.029,13.2990,4.60016,2469.914,2021-12-28T02:53:10Z
2021-12-28T00:54:44Z,42.805,6.029,13.2990,4.60015,2469.876,2021-12-28T02:56:13Z
2021-12-28T00:57:47Z,42.805,6.029,13.2991,4.60019,2469.923,2021-12-28T02:59:16Z
2021-12-28T01:00:50Z,42.805,6.029,13.2992,4.60020,2469.923,2021-12-28T03:02:20Z
2021-12-28T01:03:53Z,42.805,6.029,13.2993,4.60019,2469.9,2021-12-28T03:05:23Z
2021-12-28T01:06:56Z,42.805,6.029,13.2991,4.60017,2469.9,2021-12-28T03:08:26Z
2021-12-28T01:09:59Z,42.805,6.029,13.2993,4.60027,2469.923,2021-12-28T03:11:29Z
2021-12-28T01:13:03Z,42.805,6.029,13.2996,4.60021,2469.9,2021-12-28T03:14:32Z
2021-12-28T01:16:06Z,42.805,6.029,13.2995,4.60019,2469.914,2021-12-28T03:17:35Z
2021-12-28T01:19:09Z,42.805,6.029,13.2991,4.60017,2469.937,2021-12-28T03:20:38Z
2021-12-28T01:22:12Z,42.805,6.029,13.2991,4.60019,2469.923,2021-12-28T03:23:41Z
2021-12-28T01:25:15Z,42.805,6.029,13.2993,4.60020,2469.923,2021-12-28T03:26:45Z
2021-12-28T01:28:18Z,42.805,6.029,13.2993,4.60019,2469.914,2021-12-28T03:29:48Z
2021-12-28T01:31:21Z,42.805,6.029,13.2995,4.60027,2469.9,2021-12-28T03:32:51Z
2021-12-28T01:34:24Z,42.805,6.029,13.2991,4.60029,2469.923,2021-12-28T03:35:54Z
2021-12-28T01:37:28Z,42.805,6.029,13.2991,4.60021,2469.9,2021-12-28T03:38:57Z
2021-12-28T01:40:31Z,42.805,6.029,13.2993,4.60022,2469.914,2021-12-28T03:42:00Z
2021-12-28T01:43:34Z,42.805,6.029,13.2996,4.60030,2469.937,2021-12-28T03:45:03Z
2021-12-28T01:46:37Z,42.805,6.029,13.2991,4.60019,2469.914,2021-12-28T03:48:06Z
2021-12-28T01:49:40Z,42.805,6.029,13.2991,4.60030,2469.914,2021-12-28T03:51:10Z
2021-12-28T01:52:43Z,42.805,6.029,13.2989,4.60026,2469.914,2021-12-28T03:54:13Z
2021-12-28T01:55:46Z,42.805,6.029,13.2996,4.60033,2469.937,2021-12-28T03:57:16Z
2021-12-28T01:58:49Z,42.805,6.029,13.2995,4.60028,2469.853,2021-12-28T04:00:19Z
2021-12-28T02:01:52Z,42.805,6.029,13.2993,4.60021,2469.9,2021-12-28T04:03:22Z
2021-12-28T02:04:56Z,42.805,6.029,13.2991,4.60017,2469.937,2021-12-28T04:06:25Z
2021-12-28T02:07:59Z,42.805,6.029,13.2994,4.60021,2469.876,2021-12-28T04:09:28Z
2021-12-28T02:11:02Z,42.805,6.029,13.2991,4.60023,2469.923,2021-12-28T04:12:31Z
2021-12-28T02:14:05Z,42.805,6.029,13.2993,4.60022,2469.9,2021-12-28T04:15:35Z
2021-12-28T02:17:08Z,42.805,6.029,13.2993,4.60021,2469.89,2021-12-28T04:18:38Z
2021-12-28T02:20:11Z,42.805,6.029,13.2995,4.60029,2469.923,2021-12-28T04:21:41Z
2021-12-28T02:23:14Z,42.805,6.029,13.2996,4.60062,2469.9,2021-12-28T04:24:44Z
2021-12-28T02:26:18Z,42.805,6.029,13.2995,4.60029,2469.984,2021-12-28T04:27:47Z
2021-12-28T02:29:21Z,42.805,6.029,13.2992,4.60028,2469.867,2021-12-28T04:30:50Z
2021-12-28T02:32:24Z,42.805,6.029,13.2996,4.60038,2469.89,2021-12-28T04:33:53Z
2021-12-28T02:35:27Z,42.805,6.029,13.3011,4.60032,2469.9,2021-12-28T04:36:56Z
2021-12-28T02:38:30Z,42.805,6.029,13.3006,4.60039,2469.89,2021-12-28T04:40:00Z
2021-12-28T02:41:33Z,42.805,6.029,13.3020,4.60039,2469.9,2021-12-28T04:43:03Z
2021-12-28T02:44:36Z,42.805,6.029,13.2996,4.60031,2469.876,2021-12-28T04:46:06Z
2021-12-28T02:47:39Z,42.805,6.029,13.2991,4.60026,2469.9,2021-12-28T04:49:09Z
2021-12-28T02:50:42Z,42.805,6.029,13.3046,4.60046,2469.876,2021-12-28T04:52:12Z
2021-12-28T02:53:46Z,42.805,6.029,13.2998,4.60061,2469.853,2021-12-28T04:55:15Z
2021-12-28T02:56:49Z,42.805,6.029,13.2994,4.60049,2469.914,2021-12-28T04:58:18Z
2021-12-28T02:59:52Z,42.805,6.029,13.3048,4.60048,2469.867,2021-12-28T05:01:21Z
2021-12-28T03:02:55Z,42.805,6.029,13.3029,4.60064,2469.876,2021-12-28T05:04:25Z
2021-12-28T03:05:58Z,42.805,6.029,13.3039,4.60032,2469.89,2021-12-28T05:07:28Z
2021-12-28T03:09:01Z,42.805,6.029,13.3026,4.60045,2469.89,2021-12-28T05:10:31Z
2021-12-28T03:12:04Z,42.805,6.029,13.3031,4.60040,2469.876,2021-12-28T05:13:34Z
2021-12-28T03:15:07Z,42.805,6.029,13.3027,4.60032,2469.89,2021-12-28T05:16:37Z
2021-12-28T03:18:11Z,42.805,6.029,13.3026,4.60055,2469.9,2021-12-28T05:19:40Z
2021-12-28T03:21:14Z,42.805,6.029,13.3034,4.60053,2469.9,2021-12-28T05:22:43Z
2021-12-28T03:24:17Z,42.805,6.029,13.3003,4.60026,2469.876,2021-12-28T05:25:46Z
2021-12-28T03:27:20Z,42.805,6.029,13.2996,4.60027,2469.881,2021-12-28T05:28:50Z
2021-12-28T03:30:23Z,42.805,6.029,13.2990,4.60061,2469.876,2021-12-28T05:31:53Z
2021-12-28T03:33:26Z,42.805,6.029,13.2998,4.60023,2469.853,2021-12-28T05:34:56Z
2021-12-28T03:36:29Z,42.805,6.029,13.2991,4.60036,2469.9,2021-12-28T05:37:59Z
2021-12-28T03:39:32Z,42.805,6.029,13.3007,4.60023,2469.867,2021-12-28T05:41:02Z
2021-12-28T03:42:36Z,42.805,6.029,13.3001,4.60053,2469.876,2021-12-28T05:44:05Z
2021-12-28T03:45:39Z,42.805,6.029,13.3046,4.60029,2469.876,2021-12-28T05:47:08Z
2021-12-28T03:48:42Z,42.805,6.029,13.3031,4.60028,2469.867,2021-12-28T05:50:11Z
2021-12-28T03:51:45Z,42.805,6.029,13.3026,4.60032,2469.853,2021-12-28T05:53:15Z
2021-12-28T03:54:48Z,42.805,6.029,13.3004,4.60029,2469.923,2021-12-28T05:56:18Z
2021-12-28T03:57:51Z,42.805,6.029,13.2997,4.60025,2469.876,2021-12-28T05:59:21Z
2021-12-28T04:00:54Z,42.805,6.029,13.3033,4.60039,2469.9,2021-12-28T06:02:24Z
2021-12-28T04:03:57Z,42.805,6.029,13.3001,4.60057,2469.914,2021-12-28T06:05:27Z
2021-12-28T04:07:01Z,42.805,6.029,13.2996,4.60041,2469.89,2021-12-28T06:08:30Z
2021-12-28T04:10:04Z,42.805,6.029,13.3000,4.60023,2469.876,2021-12-28T06:11:33Z
2021-12-28T04:13:07Z,42.805,6.029,13.3011,4.60033,2469.89,2021-12-28T06:14:36Z
2021-12-28T04:16:10Z,42.805,6.029,13.3014,4.60031,2469.876,2021-12-28T06:17:39Z
2021-12-28T04:19:13Z,42.805,6.029,13.2998,4.60035,2469.914,2021-12-28T06:20:43Z
2021-12-28T04:22:16Z,42.805,6.029,13.3009,4.60039,2469.9,2021-12-28T06:23:46Z
2021-12-28T04:25:19Z,42.805,6.029,13.2994,4.60031,2469.853,2021-12-28T06:26:49Z
2021-12-28T04:28:22Z,42.805,6.029,13.3000,4.60026,2469.876,2021-12-28T06:29:52Z
2021-12-28T04:31:26Z,42.805,6.029,13.2996,4.60021,2469.867,2021-12-28T06:32:55Z
2021-12-28T04:34:29Z,42.805,6.029,13.3027,4.60041,2469.853,2021-12-28T06:35:58Z
2021-12-28T04:37:32Z,42.805,6.029,13.3027,4.60060,2469.876,2021-12-28T06:39:01Z
2021-12-28T04:40:35Z,42.805,6.029,13.3020,4.60072,2469.89,2021-12-28T06:42:04Z
2021-12-28T04:43:38Z,42.805,6.029,13.3015,4.60064,2469.876,2021-12-28T06:45:08Z
2021-12-28T04:46:41Z,42.805,6.029,13.3016,4.60099,2469.867,2021-12-28T06:48:11Z
2021-12-28T04:49:44Z,42.805,6.029,13.3023,4.60105,2469.876,2021-12-28T06:51:14Z
2021-12-28T04:52:47Z,42.805,6.029,13.3011,4.60099,2469.89,2021-12-28T06:54:17Z
2021-12-28T04:55:51Z,42.805,6.029,13.3013,4.60069,2469.89,2021-12-28T06:57:20Z
2021-12-28T04:58:54Z,42.805,6.029,13.3015,4.60099,2469.876,2021-12-28T07:00:23Z
2021-12-28T05:01:57Z,42.805,6.029,13.3015,4.60080,2469.876,2021-12-28T07:03:26Z
2021-12-28T05:05:00Z,42.805,6.029,13.3034,4.60115,2469.89,2021-12-28T07:06:29Z
2021-12-28T05:08:03Z,42.805,6.029,13.3011,4.60105,2469.914,2021-12-28T07:09:33Z
2021-12-28T05:11:06Z,42.805,6.029,13.3013,4.60072,2469.867,2021-12-28T07:12:36Z
2021-12-28T05:14:09Z,42.805,6.029,13.3024,4.60054,2469.853,2021-12-28T07:15:39Z
2021-12-28T05:17:12Z,42.805,6.029,13.3021,4.60078,2469.853,2021-12-28T07:18:42Z
2021-12-28T05:20:16Z,42.805,6.029,13.3015,4.60067,2469.89,2021-12-28T07:21:45Z
2021-12-28T05:23:19Z,42.805,6.029,13.3015,4.60049,2469.853,2021-12-28T07:24:48Z
2021-12-28T05:26:22Z,42.805,6.029,13.3015,4.60062,2469.914,2021-12-28T07:27:51Z
2021-12-28T05:29:25Z,42.805,6.029,13.3013,4.60052,2469.867,2021-12-28T07:30:54Z
2021-12-28T05:32:28Z,42.805,6.029,13.3023,4.60062,2469.867,2021-12-28T07:33:58Z
2021-12-28T05:35:31Z,42.805,6.029,13.3036,4.60087,2469.876,2021-12-28T07:37:01Z
2021-12-28T05:38:34Z,42.805,6.029,13.3026,4.60067,2469.89,2021-12-28T07:40:04Z
2021-12-28T05:41:37Z,42.805,6.029,13.3033,4.60098,2469.844,2021-12-28T07:43:07Z
2021-12-28T05:44:41Z,42.805,6.029,13.3026,4.60152,2469.867,2021-12-28T07:46:10Z
2021-12-28T05:47:44Z,42.805,6.029,13.3026,4.60107,2469.844,2021-12-28T07:49:13Z
2021-12-28T05:50:47Z,42.805,6.029,13.3045,4.60068,2469.83,2021-12-28T07:52:16Z
2021-12-28T05:53:50Z,42.805,6.029,13.3067,4.60058,2469.844,2021-12-28T07:55:19Z
2021-12-28T05:56:53Z,42.805,6.029,13.3026,4.60062,2469.853,2021-12-28T07:58:23Z
2021-12-28T05:59:56Z,42.805,6.029,13.3045,4.60103,2469.853,2021-12-28T08:01:26Z
2021-12-28T06:02:59Z,42.805,6.029,13.3053,4.60126,2469.867,2021-12-28T08:04:29Z
2021-12-28T06:06:02Z,42.805,6.029,13.3048,4.60075,2469.9,2021-12-28T08:07:32Z
2021-12-28T06:09:05Z,42.805,6.029,13.3064,4.60059,2469.9,2021-12-28T08:10:35Z
2021-12-28T06:12:09Z,42.805,6.029,13.3046,4.60089,2469.89,2021-12-28T08:13:38Z
2021-12-28T06:15:12Z,42.805,6.029,13.3046,4.60085,2469.853,2021-12-28T08:16:41Z
2021-12-28T06:18:15Z,42.805,6.029,13.3063,4.60063,2469.844,2021-12-28T08:19:44Z
2021-12-28T06:21:18Z,42.805,6.029,13.3056,4.60053,2469.83,2021-12-28T08:22:48Z
2021-12-28T06:24:21Z,42.805,6.029,13.3069,4.60051,2469.867,2021-12-28T08:25:51Z
2021-12-28T06:27:24Z,42.805,6.029,13.3041,4.60069,2469.867,2021-12-28T08:28:54Z
2021-12-28T06:30:27Z,42.805,6.029,13.3048,4.60057,2469.867,2021-12-28T08:31:57Z
2021-12-28T06:33:31Z,42.805,6.029,13.3084,4.60062,2469.876,2021-12-28T08:35:00Z
2021-12-28T06:36:34Z,42.805,6.029,13.3072,4.60074,2469.83,2021-12-28T08:38:03Z
2021-12-28T06:39:37Z,42.805,6.029,13.3064,4.60049,2469.844,2021-12-28T08:41:06Z
2021-12-28T06:42:40Z,42.805,6.029,13.3034,4.60046,2469.853,2021-12-28T08:44:09Z
2021-12-28T06:45:43Z,42.805,6.029,13.3007,4.60069,2469.806,2021-12-28T08:47:13Z
2021-12-28T06:48:46Z,42.805,6.029,13.2996,4.60069,2469.83,2021-12-28T08:50:16Z
2021-12-28T06:51:49Z,42.805,6.029,13.2995,4.60068,2469.844,2021-12-28T08:53:19Z
2021-12-28T06:54:52Z,42.805,6.029,13.3023,4.60077,2469.83,2021-12-28T08:56:22Z
2021-12-28T06:57:56Z,42.805,6.029,13.3000,4.60102,2469.83,2021-12-28T08:59:25Z
2021-12-28T07:00:59Z,42.805,6.029,13.3004,4.60099,2469.806,2021-12-28T09:02:28Z
2021-12-28T07:04:02Z,42.805,6.029,13.2992,4.60081,2469.83,2021-12-28T09:05:31Z
2021-12-28T07:07:05Z,42.805,6.029,13.2996,4.60057,2469.867,2021-12-28T09:08:34Z
2021-12-28T07:10:08Z,42.805,6.029,13.2994,4.60046,2469.867,2021-12-28T09:11:38Z
2021-12-28T07:13:11Z,42.805,6.029,13.2992,4.60044,2469.867,2021-12-28T09:14:41Z
2021-12-28T07:16:14Z,42.805,6.029,13.2990,4.60059,2469.867,2021-12-28T09:17:44Z
2021-12-28T07:19:17Z,42.805,6.029,13.2995,4.60049,2469.844,2021-12-28T09:20:47Z
2021-12-28T07:22:20Z,42.805,6.029,13.3058,4.60042,2469.844,2021-12-28T09:23:50Z
2021-12-28T07:25:24Z,42.805,6.029,13.2997,4.60039,2469.806,2021-12-28T09:26:53Z
2021-12-28T07:28:27Z,42.805,6.029,13.3070,4.60042,2469.853,2021-12-28T09:29:56Z
2021-12-28T07:31:30Z,42.805,6.029,13.3058,4.60054,2469.83,2021-12-28T09:32:59Z
2021-12-28T07:34:33Z,42.805,6.029,13.2994,4.60097,2469.844,2021-12-28T09:36:03Z
2021-12-28T07:37:36Z,42.805,6.029,13.2993,4.60041,2469.853,2021-12-28T09:39:06Z
2021-12-28T07:40:39Z,42.805,6.029,13.2993,4.60031,2469.83,2021-12-28T09:42:09Z
2021-12-28T07:43:42Z,42.805,6.029,13.2991,4.60028,2469.876,2021-12-28T09:45:12Z
2021-12-28T07:46:45Z,42.805,6.029,13.2993,4.60029,2469.806,2021-12-28T09:48:15Z
2021-12-28T07:49:49Z,42.805,6.029,13.2993,4.60026,2469.806,2021-12-28T09:51:18Z
2021-12-28T07:52:52Z,42.805,6.029,13.2993,4.60028,2469.853,2021-12-28T09:54:21Z
2021-12-28T07:55:55Z,42.805,6.029,13.2991,4.60023,2469.816,2021-12-28T09:57:24Z
2021-12-28T07:58:58Z,42.805,6.029,13.2996,4.60025,2469.867,2021-12-28T10:00:27Z
2021-12-28T08:02:01Z,42.805,6.029,13.2995,4.60026,2469.821,2021-12-28T10:03:31Z
2021-12-28T08:05:04Z,42.805,6.029,13.2996,4.60028,2469.83,2021-12-28T10:06:34Z
2021-12-28T08:08:07Z,42.805,6.029,13.2992,4.60027,2469.914,2021-12-28T10:09:37Z
2021-12-28T08:11:10Z,42.805,6.029,13.2993,4.60023,2469.867,2021-12-28T10:12:40Z
2021-12-28T08:14:14Z,42.805,6.029,13.2994,4.60023,2469.89,2021-12-28T10:15:43Z
2021-12-28T08:17:17Z,42.805,6.029,13.2993,4.60021,2469.89,2021-12-28T10:18:46Z
2021-12-28T08:20:20Z,42.805,6.029,13.2993,4.60025,2469.876,2021-12-28T10:21:49Z
2021-12-28T08:23:23Z,42.805,6.029,13.2992,4.60026,2469.83,2021-12-28T10:24:53Z
2021-12-28T08:26:26Z,42.805,6.029,13.2995,4.60027,2469.853,2021-12-28T10:27:56Z
2021-12-28T08:29:29Z,42.805,6.029,13.2993,4.60024,2469.853,2021-12-28T10:30:59Z
2021-12-28T08:32:32Z,42.805,6.029,13.2992,4.60021,2469.853,2021-12-28T10:34:02Z
2021-12-28T08:35:35Z,42.805,6.029,13.2992,4.60024,2469.83,2021-12-28T10:37:05Z
2021-12-28T08:38:39Z,42.805,6.029,13.2993,4.60021,2469.867,2021-12-28T10:40:08Z
2021-12-28T08:41:42Z,42.805,6.029,13.2995,4.60022,2469.876,2021-12-28T10:43:11Z
2021-12-28T08:44:45Z,42.805,6.029,13.2993,4.60020,2469.83,2021-12-28T10:46:14Z
2021-12-28T08:47:48Z,42.805,6.029,13.2996,4.60023,2469.83,2021-12-28T10:49:18Z
2021-12-28T08:50:51Z,42.805,6.029,13.2993,4.60022,2469.867,2021-12-28T10:52:21Z
2021-12-28T08:53:54Z,42.805,6.029,13.2995,4.60022,2469.83,2021-12-28T10:55:24Z
2021-12-28T08:56:57Z,42.805,6.029,13.2993,4.60020,2469.89,2021-12-28T10:58:27Z
2021-12-28T09:00:01Z,42.805,6.029,13.2993,4.60023,2469.867,2021-12-28T11:01:30Z
2021-12-28T09:03:04Z,42.805,6.029,13.2993,4.60024,2469.853,2021-12-28T11:04:33Z
2021-12-28T09:06:07Z,42.805,6.029,13.2996,4.60022,2469.89,2021-12-28T11:07:36Z
2021-12-28T09:09:10Z,42.805,6.029,13.2996,4.60024,2469.867,2021-12-28T11:10:39Z
2021-12-28T09:12:13Z,42.805,6.029,13.2992,4.60021,2469.853,2021-12-28T11:13:43Z
2021-12-28T09:15:16Z,42.805,6.029,13.2991,4.60021,2469.853,2021-12-28T11:16:46Z
2021-12-28T09:18:19Z,42.805,6.029,13.2994,4.60021,2469.9,2021-12-28T11:19:49Z
2021-12-28T09:21:22Z,42.805,6.029,13.2991,4.60021,2469.853,2021-12-28T11:22:52Z
2021-12-28T09:24:26Z,42.805,6.029,13.2991,4.60019,2469.83,2021-12-28T11:25:55Z
2021-12-28T09:27:29Z,42.805,6.029,13.2988,4.60019,2469.853,2021-12-28T11:28:58Z
2021-12-28T09:30:32Z,42.805,6.029,13.2994,4.60025,2469.853,2021-12-28T11:32:01Z
2021-12-28T09:33:35Z,42.805,6.029,13.2994,4.60024,2469.853,2021-12-28T11:35:04Z
2021-12-28T09:36:38Z,42.805,6.029,13.2994,4.60021,2469.876,2021-12-28T11:38:08Z
2021-12-28T09:39:41Z,42.805,6.029,13.2993,4.60022,2469.914,2021-12-28T11:41:11Z
2021-12-28T09:42:44Z,42.805,6.029,13.2991,4.60021,2469.9,2021-12-28T11:44:14Z
2021-12-28T09:45:47Z,42.805,6.029,13.2994,4.60021,2469.914,2021-12-28T11:47:17Z
2021-12-28T09:48:51Z,42.805,6.029,13.2993,4.60023,2469.89,2021-12-28T11:50:20Z
2021-12-28T09:51:54Z,42.805,6.029,13.2993,4.60022,2469.914,2021-12-28T11:53:23Z
2021-12-28T09:54:57Z,42.805,6.029,13.2996,4.60024,2469.923,2021-12-28T11:56:26Z
2021-12-28T09:58:00Z,42.805,6.029,13.2993,4.60025,2469.9,2021-12-28T11:59:29Z
2021-12-28T10:01:03Z,42.805,6.029,13.2997,4.60028,2469.9,2021-12-28T12:02:33Z
2021-12-28T10:04:06Z,42.805,6.029,13.2994,4.60019,2469.876,2021-12-28T12:05:36Z
2021-12-28T10:07:09Z,42.805,6.029,13.2991,4.60025,2469.923,2021-12-28T12:08:39Z
2021-12-28T10:10:12Z,42.805,6.029,13.2991,4.60022,2469.876,2021-12-28T12:11:42Z
2021-12-28T10:13:16Z,42.805,6.029,13.2996,4.60024,2469.853,2021-12-28T12:14:45Z
2021-12-28T10:16:19Z,42.805,6.029,13.2996,4.60028,2469.867,2021-12-28T12:17:48Z
2021-12-28T10:19:22Z,42.805,6.029,13.2992,4.60026,2469.9,2021-12-28T12:20:51Z
2021-12-28T10:22:25Z,42.805,6.029,13.2991,4.60019,2469.9,2021-12-28T12:23:54Z
2021-12-28T10:25:28Z,42.805,6.029,13.2996,4.60022,2469.937,2021-12-28T12:26:58Z
2021-12-28T10:28:31Z,42.805,6.029,13.2990,4.60021,2469.914,2021-12-28T12:30:01Z
2021-12-28T10:31:34Z,42.805,6.029,13.2993,4.60020,2469.923,2021-12-28T12:33:04Z
2021-12-28T10:34:37Z,42.805,6.029,13.2993,4.60023,2469.9,2021-12-28T12:36:07Z
2021-12-28T10:37:41Z,42.805,6.029,13.2993,4.60019,2469.9,2021-12-28T12:39:10Z
2021-12-28T10:40:44Z,42.805,6.029,13.2996,4.60021,2469.923,2021-12-28T12:42:13Z
2021-12-28T10:43:47Z,42.805,6.029,13.2993,4.60021,2469.914,2021-12-28T12:45:16Z
2021-12-28T10:46:50Z,42.805,6.029,13.2996,4.60019,2469.923,2021-12-28T12:48:20Z
2021-12-28T10:49:53Z,42.805,6.029,13.2992,4.60024,2469.914,2021-12-28T12:51:23Z
2021-12-28T10:52:56Z,42.805,6.029,13.2993,4.60024,2469.9,2021-12-28T12:54:26Z
2021-12-28T10:55:59Z,42.805,6.029,13.2996,4.60020,2469.914,2021-12-28T12:57:29Z
2021-12-28T10:59:02Z,42.805,6.029,13.2993,4.60021,2469.96,2021-12-28T13:00:32Z
2021-12-28T11:02:06Z,42.805,6.029,13.2994,4.60021,2469.9,2021-12-28T13:03:35Z
2021-12-28T11:05:09Z,42.805,6.029,13.2994,4.60021,2469.923,2021-12-28T13:06:38Z
2021-12-28T11:08:12Z,42.805,6.029,13.2996,4.60019,2469.9,2021-12-28T13:09:41Z
2021-12-28T11:11:15Z,42.805,6.029,13.2997,4.60021,2469.923,2021-12-28T13:12:45Z
2021-12-28T11:14:18Z,42.805,6.029,13.2996,4.60019,2469.947,2021-12-28T13:15:48Z
2021-12-28T11:17:21Z,42.805,6.029,13.2993,4.60021,2469.947,2021-12-28T13:18:51Z
2021-12-28T11:20:24Z,42.805,6.029,13.2996,4.60019,2469.947,2021-12-28T13:21:54Z
2021-12-28T11:23:27Z,42.805,6.029,13.2989,4.60017,2469.993,2021-12-28T13:24:57Z
2021-12-28T11:26:31Z,42.805,6.029,13.2994,4.60019,2469.984,2021-12-28T13:28:00Z
2021-12-28T11:29:34Z,42.805,6.029,13.2993,4.60020,2469.947,2021-12-28T13:31:03Z
2021-12-28T11:32:37Z,42.805,6.029,13.2993,4.60020,2469.947,2021-12-28T13:34:06Z
2021-12-28T11:35:40Z,42.805,6.029,13.2993,4.60021,2469.947,2021-12-28T13:37:10Z
2021-12-28T11:38:43Z,42.805,6.029,13.2991,4.60021,2469.993,2021-12-28T13:40:13Z
2021-12-28T11:41:46Z,42.805,6.029,13.2995,4.60022,2469.947,2021-12-28T13:43:16Z
2021-12-28T11:44:49Z,42.805,6.029,13.2993,4.60019,2469.97,2021-12-28T13:46:19Z
2021-12-28T11:47:53Z,42.805,6.029,13.2996,4.60020,2469.923,2021-12-28T13:49:22Z
2021-12-28T11:50:56Z,42.805,6.029,13.2995,4.60019,2469.97,2021-12-28T13:52:25Z
2021-12-28T11:53:59Z,42.805,6.029,13.2995,4.60018,2470.007,2021-12-28T13:55:28Z
2021-12-28T11:57:02Z,42.805,6.029,13.2995,4.60019,2469.993,2021-12-28T13:58:31Z
2021-12-28T12:00:05Z,42.805,6.029,13.2991,4.60017,2469.97,2021-12-28T14:01:35Z
2021-12-28T12:03:08Z,42.805,6.029,13.2993,4.60020,2469.947,2021-12-28T14:04:38Z
2021-12-28T12:06:11Z,42.805,6.029,13.2993,4.60016,2469.947,2021-12-28T14:07:41Z
2021-12-28T12:09:14Z,42.805,6.029,13.2993,4.60016,2470.007,2021-12-28T14:10:44Z
2021-12-28T12:12:18Z,42.805,6.029,13.2994,4.60017,2469.984,2021-12-28T14:13:47Z
2021-12-28T12:15:21Z,42.805,6.029,13.2993,4.60016,2469.97,2021-12-28T14:16:50Z
2021-12-28T12:18:24Z,42.805,6.029,13.2998,4.60016,2469.96,2021-12-28T14:19:53Z
2021-12-28T12:21:27Z,42.805,6.029,13.2992,4.60016,2469.97,2021-12-28T14:22:56Z
2021-12-28T12:24:30Z,42.805,6.029,13.2996,4.60015,2470.03,2021-12-28T14:26:00Z
2021-12-28T12:27:33Z,42.805,6.029,13.2996,4.60016,2470.007,2021-12-28T14:29:03Z
2021-12-28T12:30:36Z,42.805,6.029,13.2995,4.60015,2469.984,2021-12-28T14:32:06Z
2021-12-28T12:33:39Z,42.805,6.029,13.2993,4.60020,2469.97,2021-12-28T14:35:09Z
2021-12-28T12:36:43Z,42.805,6.029,13.2996,4.60017,2469.993,2021-12-28T14:38:12Z
2021-12-28T12:39:46Z,42.805,6.029,13.2994,4.60019,2469.97,2021-12-28T14:41:15Z
2021-12-28T12:42:49Z,42.805,6.029,13.2989,4.60016,2469.97,2021-12-28T14:44:18Z
2021-12-28T12:45:52Z,42.805,6.029,13.2991,4.60016,2469.97,2021-12-28T14:47:22Z
2021-12-28T12:48:55Z,42.805,6.029,13.2995,4.60016,2469.97,2021-12-28T14:50:25Z
2021-12-28T12:51:58Z,42.805,6.029,13.2994,4.60016,2470.017,2021-12-28T14:53:28Z
2021-12-28T12:55:01Z,42.805,6.029,13.2998,4.60017,2469.984,2021-12-28T14:56:31Z
2021-12-28T12:58:04Z,42.805,6.029,13.2993,4.60016,2470.03,2021-12-28T14:59:34Z
2021-12-28T13:01:08Z,42.805,6.029,13.2990,4.60016,2470.007,2021-12-28T15:02:37Z
2021-12-28T13:04:11Z,42.805,6.029,13.2995,4.60017,2469.993,2021-12-28T15:05:40Z
2021-12-28T13:07:14Z,42.805,6.029,13.2994,4.60022,2469.97,2021-12-28T15:08:43Z
2021-12-28T13:10:17Z,42.805,6.029,13.2996,4.60020,2470.017,2021-12-28T15:11:47Z
2021-12-28T13:13:20Z,42.805,6.029,13.2993,4.60019,2470.017,2021-12-28T15:14:50Z
2021-12-28T13:16:23Z,42.805,6.029,13.2996,4.60018,2470.03,2021-12-28T15:17:53Z
2021-12-28T13:19:26Z,42.805,6.029,13.2994,4.60016,2470.017,2021-12-28T15:20:56Z
2021-12-28T13:22:30Z,42.805,6.029,13.2993,4.60017,2469.993,2021-12-28T15:23:59Z
2021-12-28T13:25:33Z,42.805,6.029,13.2994,4.60017,2469.993,2021-12-28T15:27:02Z
2021-12-28T13:28:36Z,42.805,6.029,13.2991,4.60016,2470.04,2021-12-28T15:30:05Z
2021-12-28T13:31:39Z,42.805,6.029,13.2992,4.60016,2469.993,2021-12-28T15:33:09Z
2021-12-28T13:34:42Z,42.805,6.029,13.2992,4.60016,2469.993,2021-12-28T15:36:12Z
2021-12-28T13:37:45Z,42.805,6.029,13.2991,4.60017,2470.017,2021-12-28T15:39:15Z
2021-12-28T13:40:48Z,42.805,6.029,13.2995,4.60016,2470.03,2021-12-28T15:42:18Z
2021-12-28T13:43:51Z,42.805,6.029,13.2994,4.60015,2470.03,2021-12-28T15:45:21Z
2021-12-28T13:46:55Z,42.805,6.029,13.2991,4.60015,2469.993,2021-12-28T15:48:24Z
2021-12-28T13:49:58Z,42.805,6.029,13.3000,4.60016,2470.03,2021-12-28T15:51:27Z
2021-12-28T13:53:01Z,42.805,6.029,13.2996,4.60017,2469.993,2021-12-28T15:54:30Z
2021-12-28T13:56:04Z,42.805,6.029,13.2993,4.60017,2469.993,2021-12-28T15:57:34Z
2021-12-28T13:59:07Z,42.805,6.029,13.2993,4.60016,2469.993,2021-12-28T16:00:37Z
2021-12-28T14:02:10Z,42.805,6.029,13.2997,4.60016,2470.04,2021-12-28T16:03:40Z
2021-12-28T14:05:13Z,42.805,6.029,13.2995,4.60015,2469.993,2021-12-28T16:06:43Z
2021-12-28T14:08:16Z,42.805,6.029,13.2996,4.60019,2470.03,2021-12-28T16:09:46Z
2021-12-28T14:11:19Z,42.805,6.029,13.2995,4.60017,2470.017,2021-12-28T16:12:49Z
2021-12-28T14:14:23Z,42.805,6.029,13.2994,4.60016,2470.017,2021-12-28T16:15:52Z
2021-12-28T14:17:26Z,42.805,6.029,13.2997,4.60016,2470.053,2021-12-28T16:18:55Z
2021-12-28T14:20:29Z,42.805,6.029,13.2996,4.60016,2470.04,2021-12-28T16:21:59Z
2021-12-28T14:23:32Z,42.805,6.029,13.2993,4.60016,2470.017,2021-12-28T16:25:02Z
2021-12-28T14:26:35Z,42.805,6.029,13.2993,4.60016,2470.053,2021-12-28T16:28:05Z
2021-12-28T14:29:38Z,42.805,6.029,13.2996,4.60016,2470.03,2021-12-28T16:31:08Z
2021-12-28T14:32:41Z,42.805,6.029,13.2996,4.60016,2470.03,2021-12-28T16:34:11Z
2021-12-28T14:35:45Z,42.805,6.029,13.2993,4.60016,2470.007,2021-12-28T16:37:14Z
2021-12-28T14:38:48Z,42.805,6.029,13.2991,4.60016,2470.017,2021-12-28T16:40:17Z
2021-12-28T14:41:51Z,42.805,6.029,13.2992,4.60016,2470.017,2021-12-28T16:43:20Z
2021-12-28T14:44:54Z,42.805,6.029,13.2991,4.60017,2470.03,2021-12-28T16:46:24Z
2021-12-28T14:47:57Z,42.805,6.029,13.2993,4.60016,2470.04,2021-12-28T16:49:27Z
2021-12-28T14:51:00Z,42.805,6.029,13.2998,4.60016,2470.077,2021-12-28T16:52:30Z
2021-12-28T14:54:03Z,42.805,6.029,13.2993,4.60017,2470.007,2021-12-28T16:55:33Z
2021-12-28T14:57:06Z,42.805,6.029,13.2996,4.60016,2470.03,2021-12-28T16:58:36Z
2021-12-28T15:00:10Z,42.805,6.029,13.2993,4.60016,2470.017,2021-12-28T17:01:39Z
2021-12-28T15:03:13Z,42.805,6.029,13.2993,4.60015,2470.007,2021-12-28T17:04:42Z